Location: Góry Miechowskie
(50.3599°N, 20.1803°E)
Time: 06:33:59
(UTC+00:00)

A-11 Canister half - Pass Details

Date: 20 September 2024
Orbit: 1524 x 1683 km, 47.3° (Epoch: 12 October)

Event Time Altitude Azimuth Distance (km) Brightness Sun altitude
Rises 19:13:23 0° 284° (WNW) 4,843 12.8 -23.8°
Reaches altitude 10° 19:19:17 10° 257° (WSW) 3,888 11.6 -24.6°
Maximum altitude 19:22:33 12° 237° (WSW) 3,736 11.2 -25.0°
Drops below altitude 10° 19:25:50 10° 217° (SW) 3,914 11.1 -25.4°
Sets 19:31:54 0° 190° (S) 4,916 11.4 -26.2°
